www.pogodaiklimat.ru

Погода и климат >> Архив погоды >> Антарктида >> Bernardo o`Higgins


ПОГОДА в Bernardo o`Higgins

  • Прогноз погоды в Bernardo o`Higgins
  • Монитор погоды в Bernardo o`Higgins
  • Климат города

АРХИВ ПОГОДЫ в Bernardo o`Higgins

Время (UTC), дата Ветер
(напр.,м/с)
 
Видим.   Явления Облачность Т
(С)
Тd
(С)
f
(%)
Тe
(С)
Тes
(С)
Комфортность P
(гПа)
Po
(гПа)
Тmin
(С)
Tmax
(С)
R
(мм)
R24
(мм)
S
(см)
09 19.09 СЗ 2 н/о 10/0
[]
-9.9 -13.1 77 -14 -14 1008.3 1006.8
12 19.09 Ю 2 10 км 10/10 1500 м
[Sc diur, vesp]
-8.7 -11.2 82 -13 -13 1010.0 1008.5 -14.0 224
15 19.09 З 4 10 км 5/5 1500 м
[Cu hum]
-7.0 -10.3 77 -13 -12 1011.1 1009.6
18 19.09 З 7 10 км 5/0
[Ac trans]
-6.1 -10.1 73 -15 -14 1012.3 1010.8
21 19.09 ЮЗ 10 10 км 10/10 1500 м
[St]
-6.1 -10.5 71 -16 -16 1012.3 1010.8
00 20.09 ЮЗ 7 н/о 9/0
[]
-6.8 -11.1 71 -15 -15 1013.2 1011.7 -5.9
03 20.09 ЮЗ 8 н/о 10/0
[]
-7.0 -11.0 73 -16 -16 1013.4 1011.9
06 20.09 ЮЗ 9 н/о 9/0
[]
-7.2 -10.7 76 -17 -17 1011.9 1010.4
09 20.09 ЮЗ 9 н/о 10/0
[]
-7.9 -11.8 74 -18 -18 1010.6 1009.1
12 20.09 ЮЗ 7 10 км 10/10 1500 м
[Sc]
-8.1 -11.7 75 -17 -17 1011.0 1009.5 -8.9 224
15 20.09 ЮЗ 6 10 км 6/0
[Ac und]
-8.1 -11.7 75 -16 -15 1009.8 1008.3
18 20.09 Ю 2 10 км 10/10 1500 м
[St]
-7.7 -11.1 77 -12 -12 1009.0 1007.5
00 21.09 В 4 н/о 9/0
[]
-8.8 -10.7 86 -15 -15 1010.2 1008.7 -7.6
03 21.09 ЮЗ 3 н/о 10/0
[]
-7.7 -12.9 66 -13 -13 1009.7 1008.2
06 21.09 ЮЗ 4 н/о 9/0
[]
-7.0 -8.7 88 -13 -13 1009.5 1008.0
09 21.09 ЮЗ 5 н/о 10/0
[]
-6.4 -9.2 80 -14 -14 1009.7 1008.2
12 21.09 Ю 1 10 км 10/10 1500 м
[St]
-5.4 -9.4 73 -8 -8 1010.1 1008.6 -9.2 224
15 21.09 ЮЗ 3 10 км 10/10 1500 м
[St]
-5.0 -10.2 67 -10 -10 1009.8 1008.3
18 21.09 ЮЗ 3 10 км 10/10 1500 м
[Cu med, cong]
-5.0 -9.0 73 -10 -10 1008.7 1007.2
21 21.09 ЮВ 2 10 км 10/10 1500 м
[Cu hum]
-5.1 -9.3 72 -8 -8 1008.6 1007.1
00 22.09 ЮЗ 4 н/о 9/0
[]
-6.2 -9.3 79 -12 -12 1008.2 1006.7 -3.8
03 22.09 ЮЗ 5 н/о 10/0
[]
-6.5 -8.6 85 -14 -14 1007.9 1006.4
06 22.09 ЮЗ 6 н/о 9/0
[]
-6.7 -8.3 88 -15 -15 1007.3 1005.8
09 22.09 ЮЗ 7 н/о 10/0
[]
-6.4 -7.5 92 -15 -15 1006.4 1004.9
12 22.09 ЮЗ 6 10 км 10/10 1500 м
[St]
-6.9 -7.8 93 -15 -15 1006.8 1005.3 -6.9 224
15 22.09 ЮЗ 6 10 км 10/10 1500 м
[St]
-6.7 -8.0 90 -15 -15 1006.3 1004.8
18 22.09 ЮЗ 5 10 км 10/10 1500 м
[St]
-6.6 -7.8 91 -14 -14 1005.3 1003.8
21 22.09 ЮЗ 6 10 км 10/10 1500 м
[St]
-6.9 -8.4 89 -15 -15 1004.8 1003.3
00 23.09 ЮЗ 5 н/о 9/0
[]
-5.7 -6.7 93 -13 -13 1003.9 1002.4 -5.7
03 23.09 ЮЗ 6 н/о 10/0
[]
-5.9 -7.1 91 -14 -14 1002.9 1001.4
06 23.09 ЮЗ 5 н/о 9/0
[]
-5.6 -6.2 96 -13 -13 1001.4 999.9
09 23.09 З 7 н/о 10/0
[]
-5.4 -6.8 90 -14 -14 1000.3 998.8
12 23.09 ЮЗ 4 н/о 10/10 1500 м
[St]
-5.3 -6.5 91 -12 -12 999.7 998.2 -5.9 224
15 23.09 ЮЗ 3 10 км 10/10 1500 м
[St]
-5.1 -6.7 89 -10 -10 999.1 997.6
18 23.09 ЮЗ 4 10 км 10/10 1500 м
[St]
-5.4 -7.0 88 -12 -12 998.4 996.9
21 23.09 ЮЗ 4 10 км 10/10 1500 м
[St]
-6.1 -6.9 94 -12 -12 998.0 996.5
00 24.09 ЮЗ 5 н/о 9/0
[]
-6.3 -7.5 91 -14 -14 998.1 996.6 -5.1
03 24.09 Ю 4 н/о 10/0
[]
-6.8 -7.5 95 -14 -14 998.1 996.6
06 24.09 ЮВ 4 н/о 9/0
[]
-7.3 -8.2 93 -14 -14 997.7 996.2
09 24.09 Ю 4 н/о 10/0
[]
-6.6 -7.8 91 -13 -13 998.2 996.7
12 24.09 ЮВ 2 10 км 9/9 1500 м
[Sc diur, vesp]
-4.1 -6.7 82 -7 -7 999.0 997.5 -7.3 224
15 24.09 ЮЗ 12 10 км 9/9 1500 м
[Sc diur, vesp]
-2.4 -10.3 55 -12 -12 998.3 997.3
18 24.09 Ю 11 10 км 8/8 1500 м
[Cu hum]
-2.8 -10.1 57 -12 -12 999.9 998.4
21 24.09 Ю 17 10 км 9/9 1380 м
[St]
-4.7 -10.4 64 -16 -16 1000.1 998.6
00 25.09 ЮЗ 7 н/о 9/0
[]
-5.2 -11.6 61 -13 -13 1002.9 1001.4 -2.2
03 25.09 ЮВ 3 н/о 10/0
[]
-4.0 -12.6 51 -8 -8 1005.4 1003.9
06 25.09 ЮЗ 6 н/о 9/0
[]
-3.7 -15.0 41 -10 -10 1005.9 1004.4
09 25.09 ЮЗ 3 10 км 3/3 1500 м
[Cu hum]
-5.2 -8.7 76 -10 -10 1007.0 1005.5
12 25.09 ЮЗ 2 10 км 9/9 1000 м
[St]
-4.7 -7.2 83 -9 -9 1007.4 1005.9 -5.6 224
15 25.09 СЗ 5 10 км 10/10 1000 м
[St]
-4.3 -4.8 96 -12 -12 1006.8 1005.3
18 25.09 З 7 10 км 10/10 1500 м
[St]
-4.4 -6.2 87 -12 -12 1006.3 1004.8
21 25.09 З 5 10 км 10/10 1500 м
[St]
-4.4 -6.7 84 -12 -12 1006.2 1004.7
00 26.09 З 6 н/о 9/0
[]
-5.1 -7.0 86 -13 -13 1006.6 1005.1 -4.2
03 26.09 ЮЗ 7 н/о 10/0
[]
-5.2 -7.8 82 -13 -13 1005.8 1004.3
06 26.09 З 9 н/о 9/0
[]
-5.4 -7.1 88 -15 -15 1004.5 1003.0

 

Местоположение метеостанции Bernardo o`Higgins (Антарктида): широта -63.31 долгота -57.90 высота над уровнем моря 10 м.

В архиве по умолчанию представлена погода в Bernardo o`Higgins за последнюю неделю. Архивные данные за месяц целиком и за предыдущие месяцы, начиная с января 2011 года, Вы можете получить, выбрав интересующий диапазон дат из раскрывающегося списка и нажав кнопку "Ввод!".


*Определитесь, кто Вы:
робот инопланетянин человек

Внимание! Время в таблицах - всемирное. Для получения местного времени необходимо прибавить поправку, которая в Bernardo o`Higgins равна 0 ч.

Смотрите также архив погоды в соседних городах и на ближайших метеорологических станциях:

Погода в Esperanza Base (Антарктида) (47 км)
Погода в Marambio Base (Антарктида) (118 км)
Погода в Carlini Base (Антарктида) (126 км)
Погода в Captain Arturo Prat Base (Антарктида) (127 км)
Погода в King Sejong (Антарктида) (130 км)
Погода в Great Wall (Антарктида) (134 км)
Погода в Bellingshausen (Антарктида) (134 км)
Погода в Dinamet-Uruguay (Антарктида) (134 км)
Погода в Frei Chi-Base (Антарктида) (137 км)
Погода в Juan Carlos Island (Антарктида) (145 км)

Пояснения к столбцам:

Ветер - указаны скорость ветра в м/с - средняя за 10 мин, порывы в срок и между сроками (в фигурных скобках) и направление, откуда дует ветер: С - северный, СВ - северо-восточный, В - восточный, ЮВ - юго-восточный, Ю - южный, ЮЗ - юго-западный, З - западный, СЗ - северо-западный.
Видимость - горизонтальная дальность видимости в метрах или километрах. При видимости от 1 до 10 км при отсутствии осадков обычно наблюдается дымка, при ухудшении видимости до 1 км и менее - туман. В сухую погоду видимость может ухудшаться дымом, пылью или мглою.
Явления - указаны атмосферные явления, наблюдавшиеся в срок или в последний час перед сроком; фигурными скобками обозначены явления, наблюдавшиеся между сроками (за 1-3 часа до срока); квадратными скобками обозначены град или гололедные отложения с указанием их диаметра в мм.
Облачность - указаны через наклонную черту общая и нижняя облачность в баллах и высота нижней границы облаков в метрах; квадратными скобками обозначены формы облаков: Ci - перистые, Cs - перисто-слоистые, Cc - перисто-кучевые, Ac - высококучевые, As - высокослоистые, Sc - слоисто-кучевые, Ns - слоисто-дождевые, Cu - кучевые, Cb - кучево-дождевые. Подробнее классификацию облаков см. в Атласе облаков (PDF).
T - Температура воздуха - температура, измеренная на высоте 2 м над землей.
Td - Температура точки росы - температура, при понижении до которой содержащийся в воздухе водяной пар достигнет насыщения.
f - Относительная влажность воздуха - влажноcть воздуха, измеренная на высоте 2 м над землей.
Te - Эффективная температура - температура, которую ощущает одетый по сезону человек в тени. Характеристика душности погоды. При расчете учитывается влияние влажности воздуха и скорости ветра на теплоощущения человека.
Tes - Эффективная температура на солнце - температура, которую ощущает человек, с поправкой на солнечный нагрев. Характеристика знойности погоды. Зависит от высоты солнца над горизонтом, облачности и скорости ветра. Ночью, в пасмурную погоду, а также при ветре 12 м/с и более поправка равна нулю.
P - Атмосферное давление - приведенное к уровню моря атмосферное давление.
Po - Атмосферное давление - измеренное на уровне метеостанции атмосферное давление.
Tmin - Минимальная температура - минимум температуры воздуха на высоте 2 м над землей.
Tmax - Максимальная температура - максимум температуры воздуха на высоте 2 м над землей.
R - Количество осадков - Количество выпавших осадков за период времени, мм. При наведении курсора мыши на число - период времени, за который выпало указанное количество осадков.
R24 - Количество осадков - Количество выпавших осадков за 24 часа, мм.
S - Снежный покров - Высота снежного покрова, см. При наведении курсора мыши на число - состояние снежного покрова и степень покрытия местности в баллах.